| time (UTC) | temp F | wind direction | speed knots | gust knots | rain 1hr in | rain 24hr in | rain mn in | humidity % | barometer mb |
| 20260508200517 | 0 | 0.0 | 0.0 | 0.00 | 0.00 | 0.00 | 1009.1 | ||
| 20260508200015 | 0 | 0.0 | 0.0 | 0.00 | 0.00 | 0.00 | 1009.0 | ||
| 20260508195842 | 64 | 0 | 0.0 | 6.1 | 0.00 | 0.00 | 0.00 | 48 | 1012.0 |
| 20260508195840 | 64 | 0 | 0.0 | 2.6 | 0.00 | 0.00 | 0.00 | 47 | 1012.2 |
| 20260508195838 | 64 | 0 | 0.0 | 5.2 | 0.00 | 0.00 | 0.00 | 48 | 1012.3 |
| 20260508195836 | 64 | 160 | 1.7 | 7.0 | 0.00 | 0.00 | 0.00 | 47 | 1012.5 |
| 20260508154729 | 64 | 0 | 0.0 | 7.0 | 0.00 | 0.00 | 0.00 | 49 | 1012.5 |
| 20260508152955 | 52 | 0 | 0.0 | 0.0 | 0.00 | 0.00 | 0.00 | 61 | 1013.2 |
| 20260508152950 | 0 | 0.0 | 0.0 | 0.00 | 0.00 | 0.00 | 1013.3 | ||
| 20260508120228 | 47 | 0 | 0.0 | 0.0 | 0.00 | 0.00 | 0.00 | 67 | 1013.1 |
| 20260508010438 | 49 | 0 | 0.0 | 0.0 | 0.00 | 0.00 | 0.00 | 63 | 1013.1 |
| 20260508005900 | 50 | 0 | 0.0 | 0.0 | 0.00 | 0.00 | 0.00 | 61 | 1012.0 |
| 20260508005401 | 50 | 0 | 0.0 | 0.0 | 0.00 | 0.00 | 0.00 | 59 | 1012.1 |
| 20260508004900 | 51 | 0 | 0.0 | 0.0 | 0.00 | 0.00 | 0.00 | 56 | 1012.1 |
| 20260508004407 | 52 | 0 | 0.0 | 0.0 | 0.00 | 0.00 | 0.00 | 53 | 1012.1 |
| 20260508003435 | 54 | 0 | 0.0 | 0.0 | 0.00 | 0.00 | 0.00 | 48 | 1012.2 |
| 20260508002935 | 54 | 0 | 0.0 | 0.0 | 0.00 | 0.00 | 0.00 | 46 | 1011.9 |
| 20260508002648 | 54 | 0 | 0.0 | 0.0 | 0.00 | 0.00 | 0.00 | 44 | 1011.9 |
| 20260508002646 | 55 | 0 | 0.0 | 0.0 | 0.00 | 0.00 | 0.00 | 42 | 1011.9 |
| 20260508000550 | 56 | 0 | 0.0 | 1.7 | 0.00 | 0.00 | 0.00 | 42 | 1011.9 |
| 20260508000412 | 56 | 0 | 0.0 | 5.2 | 0.00 | 0.00 | 0.00 | 41 | 1011.8 |
| 20260507235435 | 56 | 0 | 0.0 | 5.2 | 0.00 | 0.00 | 0.00 | 41 | 1012.7 |
| 20260507234935 | 56 | 0 | 0.0 | 2.6 | 0.00 | 0.00 | 0.00 | 41 | 1012.7 |
| 20260507234435 | 57 | 0 | 0.0 | 0.0 | 0.00 | 0.00 | 0.00 | 40 | 1012.7 |
| 20260507233133 | 57 | 0 | 0.0 | 0.0 | 0.00 | 0.00 | 0.00 | 40 | 1012.6 |
| 20260507232633 | 58 | 0 | 0.0 | 6.1 | 0.00 | 0.00 | 0.00 | 39 | 1012.6 |
| 20260507232133 | 58 | 0 | 0.0 | 6.1 | 0.00 | 0.00 | 0.00 | 39 | 1012.6 |
| 20260507231633 | 59 | 0 | 0.0 | 4.3 | 0.00 | 0.00 | 0.00 | 39 | 1012.7 |
| 20260507231133 | 58 | 0 | 0.0 | 4.3 | 0.00 | 0.00 | 0.00 | 39 | 1012.7 |
| 20260507230633 | 58 | 0 | 0.0 | 0.0 | 0.00 | 0.00 | 0.00 | 39 | 1012.7 |
| 20260507230133 | 58 | 0 | 0.0 | 6.1 | 0.00 | 0.00 | 0.00 | 38 | 1012.7 |
| 20260507225633 | 59 | 0 | 0.0 | 6.1 | 0.00 | 0.00 | 0.00 | 36 | 1012.7 |
| 20260507225133 | 59 | 0 | 0.0 | 7.0 | 0.00 | 0.00 | 0.00 | 36 | 1012.6 |
| 20260507224633 | 59 | 0 | 0.0 | 7.0 | 0.00 | 0.00 | 0.00 | 35 | 1012.6 |
| 20260507224133 | 60 | 0 | 0.0 | 4.3 | 0.00 | 0.00 | 0.00 | 36 | 1011.7 |
| 20260507223633 | 59 | 0 | 0.0 | 5.2 | 0.00 | 0.00 | 0.00 | 36 | 1011.7 |
| 20260507223133 | 60 | 234 | 0.9 | 5.2 | 0.00 | 0.00 | 0.00 | 35 | 1011.8 |
| 20260507222633 | 60 | 0 | 0.0 | 5.2 | 0.00 | 0.00 | 0.00 | 36 | 1011.8 |
| 20260507221132 | 60 | 280 | 0.9 | 5.2 | 0.00 | 0.00 | 0.00 | 36 | 1011.9 |
| 20260507220632 | 60 | 282 | 0.9 | 5.2 | 0.00 | 0.00 | 0.00 | 36 | 1012.0 |
| 20260507220132 | 60 | 0 | 0.0 | 7.0 | 0.00 | 0.00 | 0.00 | 37 | 1012.1 |
| 20260507215632 | 59 | 0 | 0.0 | 7.0 | 0.00 | 0.00 | 0.00 | 38 | 1012.1 |
| 20260507215132 | 59 | 0 | 0.0 | 0.0 | 0.00 | 0.00 | 0.00 | 38 | 1012.1 |
| 20260507214632 | 59 | 0 | 0.0 | 0.0 | 0.00 | 0.00 | 0.00 | 38 | 1012.1 |
| 20260507214132 | 59 | 0 | 0.0 | 7.0 | 0.00 | 0.00 | 0.00 | 39 | 1012.0 |
| 20260507213632 | 58 | 0 | 0.0 | 9.6 | 0.00 | 0.00 | 0.00 | 40 | 1012.1 |
| 20260507213132 | 57 | 0 | 0.0 | 9.6 | 0.00 | 0.00 | 0.00 | 39 | 1012.0 |
| 20260507212632 | 58 | 0 | 0.0 | 10.4 | 0.00 | 0.00 | 0.00 | 39 | 1012.0 |
| 20260507212132 | 58 | 0 | 0.0 | 10.4 | 0.00 | 0.00 | 0.00 | 37 | 1011.9 |
| 20260507211632 | 59 | 0 | 0.0 | 9.6 | 0.00 | 0.00 | 0.00 | 37 | 1012.0 |
| 20260507211132 | 59 | 299 | 1.7 | 9.6 | 0.00 | 0.00 | 0.00 | 38 | 1012.0 |
| 20260507210227 | 59 | 0 | 0.0 | 11.3 | 0.00 | 0.00 | 0.00 | 37 | 1011.8 |
| 20260507205729 | 59 | 251 | 1.7 | 11.3 | 0.00 | 0.00 | 0.00 | 37 | 1012.0 |
| 20260507205227 | 59 | 292 | 1.7 | 9.6 | 0.00 | 0.00 | 0.00 | 37 | 1011.8 |
| 20260507204727 | 59 | 286 | 1.7 | 7.0 | 0.00 | 0.00 | 0.00 | 37 | 1011.9 |
| 20260507204227 | 59 | 281 | 1.7 | 7.8 | 0.00 | 0.00 | 0.00 | 37 | 1011.9 |
| 20260507203727 | 59 | 297 | 1.7 | 8.7 | 0.00 | 0.00 | 0.00 | 37 | 1011.8 |
| 20260507203227 | 58 | 284 | 1.7 | 8.7 | 0.00 | 0.00 | 0.00 | 37 | 1011.8 |
| 20260507202727 | 58 | 283 | 0.9 | 11.3 | 0.00 | 0.00 | 0.00 | 38 | 1011.8 |
| 20260507202227 | 59 | 263 | 3.5 | 11.3 | 0.00 | 0.00 | 0.00 | 37 | 1011.9 |
| 20260507201727 | 59 | 289 | 2.6 | 8.7 | 0.00 | 0.00 | 0.00 | 37 | 1011.8 |
| 20260507201227 | 58 | 305 | 2.6 | 7.0 | 0.00 | 0.00 | 0.00 | 40 | 1011.6 |